DELTA 1 DEB, 720

Orbit data source: Space-Track

DELTA 1 DEB, 720 is space debris in LEO originally from a launch on Sat, 21 Dec 1963 UTC launched from the Air Force Western Test Range (AFWTR). Debris objects in space refer to the collection of defunct objects orbiting the Earth. Examples of debris include non-operational satellites, rocket bodies, and fragments generated from explosions, collisions, or faulty payload assembly.

Loading next visibility...
Identifier
720, 1963-054C
Orbit
LEO
Last TLE update
1 day ago
Origin
Manufacturer
Unknown
Mission
Spacecraft
Bus & Motor
Unknown
Mass
~1 kg wet, ~1 kg dry
Launch date (UTC)
1963-12-21 (61 years ago)
Launch vehicle
Unknown
Launch site
Air Force Western Test Range (AFWTR)
Object type
Payload
Rocket body
Debris
Shape & HBR
Box + 1 Cable, 3.5 m
Radar Cross Section
6.125 m², Small (<0.1 m²)

Expand to show TLE details & history

TLE from 1 day ago
0 DELTA 1 DEB
1 00720U 63054C   25168.79726324  .00000252  00000-0  10171-3 0  9991
2 00720  58.4729 352.5457 0103535 322.8464  36.5430 14.50071258228627
Epoch: 2025-06-17T19:08Z
TLE epoch observation values (Epoch: 2025-06-17T19:08:03.543Z)
Latitude
0.00003°
Longitude
159.24246°
Altitude
668.001 km
Speed
7.555 km/s
True Right ascension
23h 30m 10s
True Declination
0° 00' 00"
Sunlit
Object was in daylight at epoch
Visualization orbit readout
Latitude
-36.74807°
Longitude
1.51081°
Altitude
750.127 km
Speed
7.473 km/s
Apparent Right ascension
09h 10m 03s
Apparent Declination
-75° 22' 37"
Sunlit
Object is in full shadow
Visualization observer readout
Local Sidereal Time
14:26:46
Azimuth
197.795° SSW
Elevation
-35.77°
Doppler factor
1
Orbital elements
Apogee altitude
798.404 km
Perigee altitude
651.322 km
Semi-major axis
7,103 km
Eccentricity
0.01035
Inclination
58.4729°
RAAN
352.5457°
Arg. of periapsis
322.8464°
True anomaly
Unknown
Mean anomaly
36.543°
Eccentric anomaly
Unknown
Mean motion
3.6256 °/min
Orbital period
99.29 mins
BSTAR
0.00010171
Loading maneuver chart data...
Loading SW <> Apogee altitude chart data...
Loading historical data...
Loading historical data...
Loading historical data...
Loading historical data...
Loading historical data...
Loading historical data...
Loading historical data...
Other satellites on launch #54 in the year 1963 (1963-12-21 UTC)

DELTA 1 DEB Visibility forecast

Observer location: undefined°, undefined°

Span
Click to sort rows by Start time (UTC) header in descending order
Start Az.
Max El. time (UTC)
Max El. Az.
Max El.
End time (UTC)
End Az.
4 mins2025-06-19 12:38:45.506Z139.798° SSE2025-06-19 12:40:45.506Z114.011° SE13.704°2025-06-19 12:42:45.506Z88.973° E
8 mins2025-06-19 14:19:45.506Z226.323° WSW2025-06-19 14:22:45.506Z280.656° WNW44.439°2025-06-19 14:27:45.506Z39.409° NE
5 mins2025-06-19 16:04:45.506Z304.802° NW2025-06-19 16:06:45.506Z333.919° NNW18.178°2025-06-19 16:09:45.506Z12.581° NNE
4 mins2025-06-19 19:35:45.506Z6.33° NNE2025-06-19 19:36:45.506Z18.747° NNE14.349°2025-06-19 19:39:45.506Z53.237° ENE
8 mins2025-06-19 21:17:45.506Z337.067° NNW2025-06-19 21:20:45.506Z28.417° NE35.745°2025-06-19 21:25:45.506Z113.327° SE
8 mins2025-06-19 23:00:45.506Z289.42° WNW2025-06-19 23:03:45.506Z243.916° WSW27.533°2025-06-19 23:08:45.506Z178.124° S
|